Location: Redwood Loop Observatory
(43.9900°N, 124.0900°W)
Time: 17:09:50
(UTC-08:00)

Envisat - Pass Details

Date: 23 October 2019
Orbit: 764 x 766 km, 98.1° (Epoch: 14 November)

Event Time Altitude Azimuth Distance (km) Brightness Sun altitude
Rises 18:38:53 0° 146° (SE) 3,221 6.0 -4.2°
Reaches altitude 10° 18:41:16 10° 139° (SE) 2,299 5.2 -4.6°
Maximum altitude 18:46:02 43° 70° (ENE) 1,073 3.4 -5.4°
Drops below altitude 10° 18:50:49 10° 360° (N) 2,313 5.4 -6.3°
Sets 18:53:14 0° 354° (N) 3,243 6.2 -6.7°
